Wind_Speed
8 7 7 7 8 9 10 11 11 11 11 11 10 10 10 9 9 8 8 8 8 8 8 8 8 8 8 8 8 8 8 7 7 8 7 8 8 8 8 8 8 8 8
7 6 6 7 8 8 9 10 11 11 11 10 10 9 9 9 8 8 7 7 7 8 8 7 7 7 7 7 7 7 7 7 7 7 7 7 7 7 7 7 7 7 7
5 5 6 7 7 8 9 10 10 10 10 10 9 9 8 8 8 7 7 7 7 7 7 7 7 7 7 7 7 7 7 7 7 7 6 6 6 6 6 6 6 7 7
5 5 5 6 7 8 9 9 9 9 9 9 9 9 8 8 7 7 7 7 7 7 7 7 7 6 7 7 6 6 6 6 6 6 6 6 6 6 5 6 6 7 7
4 4 5 6 6 7 8 8 9 9 9 9 9 9 8 8 7 7 7 7 7 7 6 6 6 6 6 6 6 6 5 6 5 5 5 5 5 5 5 5 5 6 6
4 4 5 5 5 6 7 7 8 8 8 8 8 8 8 8 8 7 7 7 6 6 6 6 5 5 5 5 5 5 5 5 4 5 5 5 5 5 5 5 5 5 6
3 4 5 6 6 6 6 7 7 7 7 7 7 8 8 7 7 7 7 7 7 6 6 5 5 4 4 4 4 4 4 5 4 5 5 5 4 4 4 4 4 4 5
4 4 4 4 4 5 5 6 6 6 6 6 7 7 7 7 7 7 7 7 7 6 6 5 5 4 4 4 4 4 4 4 4 5 5 4 4 4 4 3 3 3 4
4 4 4 4 4 4 5 5 5 5 5 6 6 6 6 7 7 7 7 7 6 7 6 5 5 5 4 4 4 4 4 4 4 4 4 4 3 4 3 3 2 3 3
4 4 4 4 4 4 4 4 4 5 5 5 6 6 6 6 6 6 6 6 6 6 6 5 5 5 5 4 4 4 4 4 4 3 3 3 3 3 3 3 2 2 3
5 5 4 4 3 3 4 4 4 4 4 5 5 5 5 5 5 5 5 5 6 6 6 5 5 5 5 4 4 4 3 3 3 3 3 3 3 2 2 3 2 2 2
4 4 3 3 2 2 3 3 3 3 4 4 4 4 4 4 4 4 4 5 5 5 5 5 4 4 5 4 4 4 4 3 3 3 3 3 3 3 2 2 2 2 2
4 3 3 2 1 1 2 3 3 3 3 3 3 3 3 4 4 3 3 4 4 4 4 4 4 4 4 4 4 4 4 4 3 3 3 3 3 2 2 2 2 2 1
4 3 2 2 1 1 2 3 4 4 3 3 2 1 2 2 2 2 3 3 3 3 3 4 3 3 3 3 3 4 4 4 4 3 3 3 3 2 2 1 1 1 1
4 3 2 1 1 1 3 4 4 4 3 3 2 2 1 0 1 1 1 1 2 2 2 3 3 2 2 2 3 3 3 4 4 3 3 3 2 2 1 1 1 0 0
5 4 3 2 2 2 3 4 5 5 4 4 3 3 2 1 1 1 1 1 1 1 2 2 2 2 2 2 2 2 2 3 4 3 3 2 2 1 1 0 0 0 1
5 5 4 3 3 4 4 5 6 6 6 5 4 4 3 3 3 2 2 2 2 1 1 1 2 1 1 0 0 1 2 2 2 2 2 2 1 1 0 0 0 1 1
6 6 5 3 3 4 5 6 6 7 8 7 6 5 5 5 4 4 4 4 3 3 2 1 1 1 1 0 0 0 0 1 1 2 1 1 1 1 0 1 2 2 2
7 7 5 4 5 5 6 6 6 7 8 8 7 7 7 6 6 6 6 5 5 5 4 3 3 2 2 1 1 1 1 1 1 1 2 2 2 2 2 2 3 3 4
9 8 6 6 6 6 6 7 7 8 9 9 8 8 7 7 7 7 8 7 7 7 6 5 5 4 4 3 3 3 3 3 3 2 2 3 3 3 3 4 4 4 5
9 8 7 7 8 8 8 7 8 8 9 10 9 8 8 8 8 8 9 10 9 9 8 7 6 6 5 5 5 4 4 4 4 4 4 4 4 4 5 5 6 6 6
9 8 8 8 9 9 8 8 9 9 9 10 10 9 9 9 9 10 9 10 10 9 9 9 8 8 8 7 7 7 7 6 6 5 6 6 6 6 7 7 7 7 8
9 8 8 8 9 10 9 9 10 10 10 11 10 10 10 10 10 10 11 11 11 11 11 11 10 10 10 10 9 9 9 8 8 8 8 8 8 8 8 9 9 9 9
8 8 8 9 10 11 11 11 11 11 11 11 12 11 11 11 11 12 13 12 12 13 13 13 13 13 13 12 12 12 12 11 11 10 10 10 10 10 10 10 10 11 11
8 8 9 10 9 10 11 12 12 12 12 12 13 12 12 12 13 14 14 14 14 14 15 16 15 15 14 14 14 14 14 14 14 14 13 13 13 12 12 12 13 13 14
8 9 9 10 9 9 11 12 12 12 13 13 13 13 14 14 14 14 15 16 16 17 17 18 17 16 16 16 16 16 16 16 16 16 16 16 16 15 15 15 15 15 16
Wind_Direction
75 76 81 87 90 90 86 83 79 76 72 69 67 65 63 62 62 64 66 67 64 66 71 73 71 71 73 75 77 77 79 79 82 83 85 88 88 87 88 90 91 93 99
71 75 80 83 87 89 87 83 80 76 72 69 66 65 63 61 63 65 66 65 64 67 70 70 70 71 71 72 72 73 75 77 80 80 82 86 86 88 90 93 95 97 100
66 74 78 81 86 88 87 84 81 78 75 71 66 64 61 61 64 64 64 64 64 66 67 68 70 71 69 67 68 69 71 76 79 79 81 82 88 92 93 95 97 99 102
60 72 78 82 86 88 87 83 80 79 78 73 67 63 59 61 63 62 62 64 64 63 64 66 69 69 66 67 68 66 67 74 76 79 81 82 87 92 96 97 96 97 100
55 74 80 82 86 86 85 82 80 80 77 73 68 62 58 57 63 60 60 61 63 60 60 63 66 65 64 68 69 64 66 72 72 76 81 84 87 90 93 97 99 94 99
57 74 81 82 88 89 88 85 83 82 79 74 68 63 59 57 58 59 59 59 60 59 59 60 64 64 65 69 68 64 65 67 68 75 80 85 90 88 88 92 98 98 100
58 77 85 84 88 95 95 91 89 87 81 76 70 64 60 57 56 59 59 59 60 62 61 59 61 66 69 72 68 62 57 60 65 68 73 81 88 88 88 91 94 101 100
60 74 81 84 93 104 103 99 97 91 84 78 74 68 61 60 61 61 59 59 60 59 59 61 61 64 67 67 61 56 53 62 64 64 70 75 83 86 88 92 100 96 99
57 65 71 76 93 112 110 108 106 98 90 82 75 75 74 67 63 61 63 60 59 58 59 61 61 58 59 59 51 50 53 56 58 61 68 70 79 84 87 89 97 102 105
56 60 69 74 87 103 113 111 110 104 96 88 80 76 76 70 66 65 67 60 57 57 56 55 54 57 57 57 54 53 54 54 55 60 71 73 76 82 87 90 96 103 110
63 70 77 79 88 102 118 121 119 113 103 96 86 76 72 69 65 67 69 60 54 53 52 48 49 54 53 52 53 52 52 49 53 63 74 82 85 90 94 94 99 109 119
59 67 75 75 92 116 136 136 134 129 118 108 93 81 75 70 64 67 70 64 57 51 49 47 47 54 53 51 51 49 49 50 55 69 79 83 92 98 100 98 98 112 124
38 44 53 42 43 163 164 157 153 150 140 125 109 94 86 73 63 64 70 63 55 48 49 49 50 52 53 53 47 47 52 55 70 76 89 88 86 92 99 101 97 100 119
20 25 22 20 23 151 175 178 174 169 162 152 143 129 114 77 56 60 68 64 55 46 45 47 47 43 45 47 37 45 54 64 61 70 89 88 85 86 91 108 108 94 92
351 350 352 7 16 191 196 195 189 186 184 178 174 178 180 131 35 53 67 56 34 33 36 35 33 34 40 43 43 51 54 55 51 61 73 79 79 79 73 96 137 118 42
330 322 317 301 269 229 217 212 205 201 206 203 197 206 214 242 250 243 257 280 320 7 20 19 12 22 27 25 36 47 53 44 48 59 64 70 76 76 65 64 91 10 352
313 306 298 282 273 246 231 224 219 215 217 214 211 214 227 240 236 234 245 255 263 266 330 360 352 356 19 29 15 44 58 52 44 48 51 58 63 79 97 325 306 297 301
307 302 294 273 272 251 240 234 232 226 224 223 220 226 235 239 239 240 243 248 253 252 249 283 326 340 2 271 278 271 62 41 16 13 8 3 22 29 281 286 285 284 282
311 304 290 273 268 260 252 243 242 235 225 228 229 235 239 240 242 248 247 250 255 254 253 256 262 285 296 282 268 250 260 298 310 327 322 312 309 299 283 284 287 282 278
304 298 280 265 265 265 262 249 250 237 232 236 238 238 245 247 247 246 247 251 252 252 254 254 253 262 274 279 273 256 258 270 271 275 280 284 288 293 288 286 289 288 282
297 293 279 263 262 262 262 249 244 241 236 241 239 240 247 250 251 249 247 248 250 252 254 254 254 260 269 270 270 261 264 272 279 270 269 269 277 288 291 287 286 286 284
291 283 273 263 261 257 252 248 247 246 243 242 239 244 247 245 249 251 250 249 250 251 252 255 260 262 263 264 267 264 264 268 272 273 268 268 270 277 282 283 283 282 281
288 278 270 266 260 251 245 248 248 246 242 240 242 247 248 247 249 248 248 248 249 253 256 259 261 262 262 262 265 266 264 267 267 269 268 268 271 274 277 277 278 278 277
280 279 267 261 258 251 245 246 246 245 245 241 242 248 251 253 254 253 248 249 251 253 258 262 263 262 261 261 260 262 264 264 266 265 266 268 271 274 277 278 276 276 277
277 271 265 261 257 251 248 248 245 243 243 242 243 247 253 256 254 251 248 247 251 254 257 260 262 261 260 261 261 263 264 264 265 265 265 268 271 273 274 277 277 276 277
274 270 272 266 259 257 255 249 249 249 248 246 245 250 253 253 253 251 249 249 250 254 257 259 260 259 260 260 261 264 264 263 264 264 264 266 270 272 274 278 279 277 278
Height
5888 5888 5888 5888 5888 5889 5889 5890 5890 5891 5891 5892 5893 5893 5894 5894 5894 5895 5895 5895 5895 5895 5895 5895 5894 5894 5894 5894 5894 5894 5894 5894 5894 5894 5895 5895 5895 5895 5895 5896 5896 5896 5896
5889 5889 5889 5889 5889 5890 5890 5891 5891 5892 5893 5893 5894 5895 5895 5895 5896 5896 5896 5896 5896 5896 5896 5896 5896 5896 5896 5896 5896 5896 5896 5895 5895 5896 5896 5896 5896 5896 5896 5897 5897 5897 5897
5890 5890 5890 5890 5891 5891 5891 5892 5892 5893 5894 5895 5895 5896 5896 5897 5897 5897 5897 5897 5897 5897 5897 5897 5897 5897 5897 5897 5897 5897 5897 5897 5897 5897 5897 5897 5897 5897 5897 5898 5898 5898 5898
5892 5891 5891 5892 5892 5892 5892 5893 5894 5894 5895 5896 5896 5897 5897 5898 5898 5898 5898 5898 5898 5898 5898 5898 5898 5898 5898 5898 5898 5898 5898 5898 5898 5898 5898 5898 5898 5898 5898 5898 5898 5899 5899
5892 5892 5892 5892 5892 5893 5893 5894 5895 5895 5896 5896 5897 5898 5898 5899 5899 5899 5899 5899 5899 5899 5899 5899 5899 5899 5899 5899 5899 5899 5899 5899 5898 5898 5898 5899 5899 5899 5899 5899 5899 5899 5899
5893 5893 5893 5893 5893 5894 5894 5895 5895 5896 5897 5897 5898 5898 5899 5899 5900 5900 5900 5900 5900 5900 5900 5900 5900 5900 5900 5900 5900 5900 5900 5899 5899 5899 5899 5899 5899 5899 5900 5900 5900 5900 5900
5894 5893 5893 5893 5894 5894 5895 5896 5896 5897 5897 5898 5899 5899 5899 5900 5900 5900 5901 5901 5901 5901 5901 5901 5901 5901 5901 5901 5900 5900 5900 5900 5900 5900 5900 5900 5900 5900 5900 5900 5900 5900 5901
5895 5894 5894 5894 5894 5895 5895 5896 5897 5897 5898 5899 5899 5899 5900 5900 5900 5901 5901 5901 5901 5901 5901 5901 5901 5901 5901 5901 5901 5901 5901 5900 5900 5900 5900 5900 5901 5901 5901 5901 5901 5901 5902
5895 5895 5895 5895 5895 5895 5896 5896 5897 5898 5899 5899 5900 5900 5900 5901 5901 5901 5902 5902 5902 5902 5902 5902 5902 5902 5902 5901 5901 5901 5901 5901 5901 5901 5901 5901 5901 5901 5901 5902 5902 5902 5902
5895 5895 5895 5895 5896 5896 5896 5897 5898 5898 5899 5900 5900 5900 5901 5901 5902 5902 5902 5902 5903 5903 5903 5902 5902 5902 5902 5902 5902 5902 5902 5902 5901 5902 5902 5902 5902 5902 5902 5902 5902 5903 5903
5896 5896 5896 5896 5896 5896 5897 5897 5898 5899 5899 5900 5901 5901 5901 5902 5902 5902 5903 5903 5903 5903 5903 5903 5903 5903 5903 5902 5902 5902 5902 5902 5902 5902 5902 5902 5903 5903 5903 5903 5903 5903 5903
5896 5896 5896 5896 5896 5897 5897 5898 5898 5899 5900 5900 5901 5902 5902 5903 5903 5903 5903 5903 5904 5904 5904 5904 5903 5904 5903 5903 5903 5903 5903 5903 5903 5903 5903 5903 5903 5904 5904 5904 5904 5904 5904
5897 5896 5896 5896 5896 5897 5897 5898 5899 5899 5900 5901 5901 5902 5903 5903 5903 5903 5904 5904 5904 5904 5904 5904 5904 5904 5904 5904 5904 5904 5903 5903 5903 5903 5904 5904 5904 5904 5904 5905 5905 5905 5905
5897 5896 5896 5896 5896 5896 5897 5897 5898 5899 5900 5901 5901 5902 5903 5903 5903 5904 5904 5904 5905 5905 5905 5905 5904 5904 5904 5904 5904 5904 5904 5904 5904 5904 5904 5904 5904 5905 5905 5905 5905 5905 5905
5896 5896 5896 5896 5896 5896 5896 5897 5898 5899 5900 5900 5901 5902 5902 5903 5903 5904 5904 5904 5905 5905 5905 5905 5905 5905 5904 5905 5905 5905 5904 5905 5904 5905 5905 5905 5905 5905 5905 5905 5905 5906 5906
5896 5896 5895 5895 5895 5896 5896 5897 5898 5898 5899 5900 5901 5901 5902 5903 5903 5903 5904 5904 5905 5905 5905 5905 5905 5905 5905 5905 5905 5905 5905 5905 5905 5905 5905 5905 5905 5905 5906 5906 5906 5906 5906
5895 5895 5894 5894 5895 5895 5896 5896 5897 5898 5899 5899 5900 5901 5901 5902 5902 5903 5904 5904 5905 5905 5905 5905 5905 5905 5905 5905 5905 5905 5905 5905 5905 5906 5906 5906 5906 5906 5906 5906 5906 5906 5906
5894 5893 5893 5893 5893 5894 5894 5895 5896 5897 5898 5898 5899 5900 5900 5901 5901 5902 5903 5903 5904 5904 5904 5905 5905 5905 5905 5905 5905 5905 5905 5905 5906 5906 5906 5906 5906 5906 5906 5906 5906 5906 5906
5893 5892 5892 5892 5892 5893 5893 5894 5895 5895 5896 5897 5898 5898 5899 5900 5900 5901 5902 5903 5903 5904 5904 5904 5905 5905 5905 5905 5905 5905 5905 5905 5905 5906 5906 5906 5906 5906 5906 5906 5906 5906 5906
5891 5891 5890 5890 5891 5891 5892 5892 5893 5893 5894 5896 5896 5897 5898 5898 5899 5900 5900 5901 5902 5903 5903 5903 5904 5904 5904 5904 5904 5904 5904 5905 5905 5905 5905 5906 5906 5905 5905 5905 5905 5905 5905
5890 5889 5889 5888 5889 5890 5890 5891 5891 5892 5893 5894 5895 5896 5896 5897 5897 5898 5899 5900 5900 5901 5902 5902 5903 5903 5903 5903 5904 5904 5904 5904 5904 5904 5904 5905 5905 5905 5905 5905 5904 5904 5904
5888 5887 5887 5887 5887 5888 5888 5889 5890 5890 5891 5892 5893 5894 5894 5895 5895 5896 5897 5898 5898 5899 5900 5901 5901 5901 5902 5902 5903 5902 5903 5903 5903 5903 5903 5903 5903 5903 5903 5903 5903 5903 5902
5886 5885 5885 5885 5885 5886 5886 5887 5888 5888 5889 5890 5891 5892 5892 5893 5893 5894 5895 5896 5896 5897 5898 5898 5899 5899 5900 5900 5901 5901 5901 5901 5901 5902 5901 5901 5901 5901 5901 5901 5901 5901 5900
5884 5883 5883 5883 5883 5883 5884 5885 5886 5886 5887 5888 5888 5889 5890 5891 5891 5892 5893 5894 5894 5895 5895 5896 5896 5897 5897 5898 5898 5899 5899 5899 5899 5899 5899 5899 5899 5899 5899 5899 5899 5898 5898
5881 5881 5880 5880 5880 5881 5881 5882 5882 5883 5884 5885 5886 5886 5887 5888 5888 5889 5889 5890 5891 5892 5892 5893 5893 5893 5894 5895 5895 5896 5896 5896 5896 5896 5897 5897 5896 5896 5896 5896 5896 5896 5895
5879 5879 5878 5878 5877 5878 5878 5878 5879 5880 5881 5882 5882 5883 5883 5884 5885 5885 5886 5887 5888 5888 5889 5889 5889 5890 5891 5891 5892 5892 5892 5893 5893 5893 5893 5893 5893 5893 5893 5893 5892 5892 5892